Location: Unspecified
(0.0000°N, 0.0000°E)
Time: 09:27:18
(UTC+00:00)

deb Explorer IX - All Passes

Search period start: 23 February 2017 00:00
Search period end: 05 March 2017 00:00
Orbit: 542 x 1126 km, 38.8° (Epoch: 22 February)

Date Brightness Start Highest point End Pass type
(mag) Time Alt. Az. Time Alt. Az. Time Alt. Az.
23 Feb - 03:26:04 10° NNE 03:28:38 12° NE 03:31:18 10° ENE visible
23 Feb - 05:09:26 10° NW 05:16:22 63° NE 05:23:45 10° ESE visible
23 Feb - 06:57:56 10° W 07:04:09 29° SW 07:10:25 10° SSE daylight
23 Feb - 16:11:15 10° S 16:14:15 17° SE 16:17:03 10° ESE daylight
23 Feb - 17:57:14 10° WSW 18:01:17 42° NW 18:05:07 10° NNE daylight
24 Feb - 03:06:31 10° NNE 03:09:19 13° NE 03:12:14 10° ENE visible
24 Feb - 04:50:07 10° NW 04:56:57 67° NE 05:04:21 10° ESE visible
24 Feb - 06:38:45 10° W 06:44:46 28° SW 06:50:54 10° SSE daylight
24 Feb - 15:51:42 10° S 15:55:04 19° SE 15:58:11 10° E daylight
24 Feb - 17:38:03 10° WSW 17:42:06 38° NW 17:45:54 10° NNE daylight
25 Feb - 02:47:00 10° NNE 02:50:00 13° NE 02:53:08 10° ENE visible
25 Feb - 04:30:49 10° NW 04:37:32 71° NE 04:44:55 10° SE visible
25 Feb - 06:19:35 10° W 06:25:23 26° SW 06:31:21 10° SSE daylight
25 Feb - 15:32:09 10° SSW 15:35:54 22° SE 15:39:18 10° E daylight
25 Feb - 17:18:52 10° WSW 17:22:55 34° NW 17:26:41 10° NNE daylight
26 Feb - 02:27:33 10° N 02:30:40 14° NE 02:33:58 10° ENE visible
26 Feb - 04:11:32 10° NW 04:18:08 76° NE 04:25:29 10° SE visible
26 Feb - 06:00:27 10° W 06:05:59 24° SW 06:11:46 10° SSE daylight
26 Feb - 15:12:36 10° SSW 15:16:42 25° SE 15:20:22 10° E daylight
26 Feb - 16:59:39 10° WSW 17:03:43 32° NW 17:07:27 10° NNE daylight
27 Feb - 02:08:07 10° N 02:11:21 14° NE 02:14:46 10° ENE visible
27 Feb - 03:52:15 10° NW 03:58:43 81° NE 04:06:02 10° SE visible
27 Feb - 05:41:20 10° W 05:46:37 22° SW 05:52:09 10° S visible
27 Feb - 14:53:04 10° SSW 14:57:30 28° SE 15:01:24 10° E daylight
27 Feb - 16:40:26 10° WSW 16:44:31 29° NW 16:48:12 10° NNE daylight
28 Feb - 01:48:42 10° N 01:52:01 15° NE 01:55:34 10° ENE night (unlit)
28 Feb - 03:33:00 10° NW 03:39:18 86° NE 03:46:33 10° SE visible
28 Feb - 05:22:16 10° W 05:27:15 21° SW 05:32:30 10° S visible
28 Feb - 14:33:31 10° SSW 14:38:16 31° SE 14:42:25 10° E daylight
28 Feb - 16:21:12 10° W 16:25:17 27° NW 16:28:58 10° NNE daylight
01 Mar - 01:29:18 10° N 01:32:41 16° NE 01:36:19 10° ENE night (unlit)
01 Mar - 03:13:46 10° NW 03:19:55 89° SSW 03:27:03 10° SE visible
01 Mar - 05:03:14 10° W 05:07:53 19° SW 05:12:48 10° S visible
01 Mar - 14:13:59 10° SSW 14:19:02 35° SE 14:23:23 10° ENE daylight
01 Mar - 16:01:57 10° W 16:06:03 26° NW 16:09:43 10° NNE daylight
02 Mar - 01:09:56 10° N 01:13:21 16° NE 01:17:03 10° E night (unlit)
02 Mar - 02:54:32 10° NW 03:00:32 84° SW 03:07:32 10° SE visible
02 Mar - 04:44:15 10° WSW 04:48:31 17° SW 04:53:04 10° S visible
02 Mar - 13:54:25 10° SSW 13:59:47 39° SE 14:04:21 10° ENE daylight
02 Mar - 15:42:40 10° W 15:46:47 24° NW 15:50:27 10° NNE daylight
03 Mar - 00:50:35 10° N 00:54:01 17° NE 00:57:47 10° E night (unlit)
03 Mar - 02:35:20 10° NW 02:41:09 78° SW 02:48:01 10° SE visible
03 Mar - 04:25:19 10° WSW 04:29:10 16° SW 04:33:16 10° S visible
03 Mar - 13:34:52 10° SSW 13:40:30 43° SE 13:45:16 10° ENE daylight
03 Mar - 15:23:23 10° W 15:27:30 23° NW 15:31:11 10° N daylight
04 Mar - 00:31:14 10° N 00:34:42 17° NE 00:38:29 10° E night (unlit)
04 Mar - 02:16:08 10° NW 02:21:47 72° SW 02:28:29 10° SE visible
04 Mar - 04:06:28 10° WSW 04:09:50 14° SW 04:13:23 10° S visible
04 Mar - 13:15:18 10° SW 13:21:12 48° SE 13:26:10 10° ENE daylight
04 Mar - 15:04:05 10° W 15:08:13 22° NW 15:11:54 10° N daylight
